| time (UTC) | temp F | wind direction | speed MPH | gust MPH | rain 1hr in | rain 24hr in | rain mn in | humidity % | barometer mb |
| 20260510083030 | 78 | 264 | 2.0 | 8.0 | 0.00 | 0.00 | 0.00 | 50 | 1016.2 |
| 20260510082019 | 78 | 254 | 1.0 | 5.0 | 0.00 | 0.00 | 0.00 | 50 | 1016.1 |
| 20260510081023 | 77 | 250 | 1.0 | 8.0 | 0.00 | 0.00 | 0.00 | 49 | 1015.9 |
| 20260510080028 | 77 | 268 | 1.0 | 5.0 | 0.00 | 0.00 | 0.00 | 51 | 1015.9 |
| 20260510075017 | 77 | 215 | 2.0 | 5.0 | 0.00 | 0.00 | 0.00 | 51 | 1015.6 |
| 20260510074022 | 76 | 318 | 0.0 | 2.0 | 0.00 | 0.00 | 0.00 | 53 | 1015.7 |
| 20260510073026 | 76 | 305 | 1.0 | 2.0 | 0.00 | 0.00 | 0.00 | 54 | 1015.6 |
| 20260510072031 | 75 | 0.0 | 0.0 | 0.00 | 0.00 | 0.00 | 53 | 1015.6 | |
| 20260510071019 | 74 | 250 | 0.0 | 5.0 | 0.00 | 0.00 | 0.00 | 54 | 1015.6 |
| 20260510070044 | 74 | 0.0 | 0.0 | 0.00 | 0.00 | 0.00 | 56 | 1015.6 | |
| 20260510065029 | 74 | 334 | 0.0 | 2.0 | 0.00 | 0.00 | 0.00 | 56 | 1015.5 |
| 20260510064018 | 74 | 208 | 0.0 | 5.0 | 0.00 | 0.00 | 0.00 | 56 | 1015.5 |
| 20260510063022 | 74 | 0.0 | 0.0 | 0.00 | 0.00 | 0.00 | 57 | 1015.6 | |
| 20260510062027 | 73 | 244 | 0.0 | 2.0 | 0.00 | 0.00 | 0.00 | 56 | 1015.6 |
| 20260510061015 | 72 | 0.0 | 0.0 | 0.00 | 0.00 | 0.00 | 57 | 1015.5 | |
| 20260510060020 | 71 | 0.0 | 0.0 | 0.00 | 0.00 | 0.00 | 59 | 1015.5 | |
| 20260510055025 | 71 | 0.0 | 0.0 | 0.00 | 0.00 | 0.00 | 59 | 1015.2 | |
| 20260510054050 | 70 | 0.0 | 0.0 | 0.00 | 0.00 | 0.00 | 62 | 1015.2 | |
| 20260510053018 | 70 | 0.0 | 0.0 | 0.00 | 0.00 | 0.00 | 60 | 1015.2 | |
| 20260510052023 | 69 | 0.0 | 0.0 | 0.00 | 0.00 | 0.00 | 61 | 1015.1 | |
| 20260510051029 | 68 | 0.0 | 0.0 | 0.00 | 0.00 | 0.00 | 59 | 1014.8 | |
| 20260510050016 | 67 | 0.0 | 0.0 | 0.00 | 0.00 | 0.00 | 61 | 1014.8 | |
| 20260510045022 | 66 | 0.0 | 0.0 | 0.00 | 0.00 | 0.00 | 63 | 1014.8 | |
| 20260510044026 | 65 | 0.0 | 0.0 | 0.00 | 0.00 | 0.00 | 63 | 1014.9 | |
| 20260510043031 | 64 | 0.0 | 0.0 | 0.00 | 0.00 | 0.00 | 64 | 1014.8 | |
| 20260510042019 | 63 | 0.0 | 0.0 | 0.00 | 0.00 | 0.00 | 66 | 1014.8 | |
| 20260510041024 | 62 | 0.0 | 0.0 | 0.00 | 0.00 | 0.00 | 69 | 1014.4 | |
| 20260510040030 | 62 | 0.0 | 0.0 | 0.00 | 0.00 | 0.00 | 70 | 1014.2 | |
| 20260510035017 | 62 | 0.0 | 0.0 | 0.00 | 0.00 | 0.00 | 70 | 1014.2 | |
| 20260510034023 | 62 | 0.0 | 0.0 | 0.00 | 0.00 | 0.00 | 70 | 1014.2 | |
| 20260510033028 | 62 | 114 | 0.0 | 5.0 | 0.00 | 0.00 | 0.00 | 70 | 1014.1 |
| 20260510032016 | 62 | 0.0 | 0.0 | 0.00 | 0.00 | 0.00 | 70 | 1014.0 | |
| 20260510031020 | 62 | 0.0 | 0.0 | 0.00 | 0.00 | 0.00 | 71 | 1014.2 | |
| 20260510030025 | 62 | 0.0 | 0.0 | 0.00 | 0.00 | 0.00 | 71 | 1014.2 | |
| 20260510025030 | 62 | 0.0 | 0.0 | 0.00 | 0.00 | 0.00 | 70 | 1013.9 | |
| 20260510024018 | 62 | 0.0 | 0.0 | 0.00 | 0.00 | 0.00 | 70 | 1013.9 | |
| 20260510023023 | 62 | 0.0 | 0.0 | 0.00 | 0.00 | 0.00 | 69 | 1013.9 | |
| 20260510022049 | 62 | 0.0 | 0.0 | 0.00 | 0.00 | 0.00 | 70 | 1013.9 | |
| 20260510021016 | 62 | 0.0 | 0.0 | 0.00 | 0.00 | 0.00 | 68 | 1013.9 | |
| 20260510020041 | 62 | 0.0 | 0.0 | 0.00 | 0.00 | 0.00 | 68 | 1013.8 | |
| 20260510015047 | 62 | 0.0 | 0.0 | 0.00 | 0.00 | 0.00 | 68 | 1013.9 | |
| 20260510014031 | 62 | 0.0 | 0.0 | 0.00 | 0.00 | 0.00 | 68 | 1013.9 | |
| 20260510013020 | 62 | 0.0 | 0.0 | 0.00 | 0.00 | 0.00 | 68 | 1013.9 | |
| 20260510012024 | 62 | 0.0 | 0.0 | 0.00 | 0.00 | 0.00 | 68 | 1013.9 | |
| 20260510011049 | 62 | 0.0 | 0.0 | 0.00 | 0.00 | 0.00 | 68 | 1013.8 | |
| 20260510010017 | 63 | 0.0 | 0.0 | 0.00 | 0.00 | 0.00 | 68 | 1013.8 | |
| 20260510005022 | 62 | 0.0 | 0.0 | 0.00 | 0.00 | 0.00 | 68 | 1013.7 | |
| 20260510004027 | 62 | 0.0 | 0.0 | 0.00 | 0.00 | 0.00 | 68 | 1013.6 | |
| 20260510003015 | 62 | 0.0 | 0.0 | 0.00 | 0.00 | 0.00 | 69 | 1013.8 | |
| 20260510002020 | 63 | 0.0 | 0.0 | 0.00 | 0.00 | 0.00 | 68 | 1013.9 | |
| 20260510001025 | 63 | 0.0 | 0.0 | 0.00 | 0.00 | 0.00 | 68 | 1013.8 | |
| 20260510000030 | 63 | 0.0 | 0.0 | 0.00 | 0.00 | 0.00 | 67 | 1013.9 | |
| 20260509235018 | 63 | 0.0 | 0.0 | 0.00 | 0.00 | 0.00 | 68 | 1013.9 | |
| 20260509234023 | 63 | 0.0 | 0.0 | 0.00 | 0.00 | 0.00 | 67 | 1013.9 | |
| 20260509233028 | 63 | 0.0 | 0.0 | 0.00 | 0.00 | 0.00 | 66 | 1013.9 | |
| 20260509232016 | 63 | 0.0 | 0.0 | 0.00 | 0.00 | 0.00 | 66 | 1014.0 | |
| 20260509231021 | 63 | 0.0 | 0.0 | 0.00 | 0.00 | 0.00 | 65 | 1014.1 | |
| 20260509230026 | 63 | 0.0 | 0.0 | 0.00 | 0.00 | 0.00 | 65 | 1014.2 | |
| 20260509225031 | 64 | 0.0 | 0.0 | 0.00 | 0.00 | 0.00 | 65 | 1014.2 | |
| 20260509224019 | 64 | 144 | 0.0 | 2.0 | 0.00 | 0.00 | 0.00 | 65 | 1014.2 |
| 20260509223024 | 64 | 23 | 1.0 | 8.0 | 0.00 | 0.00 | 0.00 | 66 | 1014.3 |
| 20260509222029 | 64 | 0.0 | 0.0 | 0.00 | 0.00 | 0.00 | 67 | 1014.3 | |
| 20260509221017 | 64 | 0.0 | 0.0 | 0.00 | 0.00 | 0.00 | 67 | 1014.4 | |
| 20260509220022 | 64 | 0.0 | 0.0 | 0.00 | 0.00 | 0.00 | 67 | 1014.3 | |
| 20260509215042 | 65 | 0.0 | 0.0 | 0.00 | 0.00 | 0.00 | 66 | 1014.3 | |
| 20260509214027 | 65 | 0.0 | 0.0 | 0.00 | 0.00 | 0.00 | 66 | 1014.4 | |
| 20260509213035 | 65 | 0.0 | 0.0 | 0.00 | 0.00 | 0.00 | 65 | 1014.2 | |
| 20260509212020 | 65 | 0.0 | 0.0 | 0.00 | 0.00 | 0.00 | 65 | 1014.3 | |
| 20260509211045 | 65 | 0.0 | 0.0 | 0.00 | 0.00 | 0.00 | 65 | 1014.2 | |
| 20260509210030 | 65 | 17 | 0.0 | 2.0 | 0.00 | 0.00 | 0.00 | 65 | 1014.2 |
| 20260509205018 | 65 | 0.0 | 0.0 | 0.00 | 0.00 | 0.00 | 65 | 1014.2 | |
| 20260509204023 | 65 | 0.0 | 0.0 | 0.00 | 0.00 | 0.00 | 65 | 1014.2 | |
| 20260509203028 | 66 | 0.0 | 0.0 | 0.00 | 0.00 | 0.00 | 65 | 1014.2 | |
| 20260509202016 | 66 | 0.0 | 0.0 | 0.00 | 0.00 | 0.00 | 64 | 1014.2 | |
| 20260509201021 | 66 | 0.0 | 0.0 | 0.00 | 0.00 | 0.00 | 65 | 1014.2 | |
| 20260509200026 | 66 | 0.0 | 0.0 | 0.00 | 0.00 | 0.00 | 65 | 1014.2 | |
| 20260509195031 | 66 | 0.0 | 0.0 | 0.00 | 0.00 | 0.00 | 65 | 1013.9 | |
| 20260509194019 | 66 | 0.0 | 0.0 | 0.00 | 0.00 | 0.00 | 66 | 1013.9 | |
| 20260509193024 | 66 | 0.0 | 0.0 | 0.00 | 0.00 | 0.00 | 65 | 1014.1 | |
| 20260509192029 | 66 | 0.0 | 0.0 | 0.00 | 0.00 | 0.00 | 65 | 1014.0 | |
| 20260509191017 | 66 | 0.0 | 0.0 | 0.00 | 0.00 | 0.00 | 65 | 1014.0 | |
| 20260509190022 | 67 | 0.0 | 0.0 | 0.00 | 0.00 | 0.00 | 65 | 1013.8 | |
| 20260509185047 | 67 | 0.0 | 0.0 | 0.00 | 0.00 | 0.00 | 65 | 1014.1 | |
| 20260509184015 | 67 | 0.0 | 0.0 | 0.00 | 0.00 | 0.00 | 64 | 1013.7 | |
| 20260509183020 | 67 | 0.0 | 0.0 | 0.00 | 0.00 | 0.00 | 64 | 1013.7 | |
| 20260509182025 | 68 | 0.0 | 0.0 | 0.00 | 0.00 | 0.00 | 63 | 1013.5 | |
| 20260509181050 | 68 | 0.0 | 0.0 | 0.00 | 0.00 | 0.00 | 63 | 1013.4 | |
| 20260509180018 | 68 | 238 | 0.0 | 5.0 | 0.00 | 0.00 | 0.00 | 62 | 1013.4 |
| 20260509175023 | 68 | 335 | 0.0 | 5.0 | 0.00 | 0.00 | 0.00 | 61 | 1013.3 |
| 20260509174028 | 69 | 300 | 0.0 | 5.0 | 0.00 | 0.00 | 0.00 | 60 | 1013.1 |
| 20260509173016 | 69 | 303 | 1.0 | 2.0 | 0.00 | 0.00 | 0.00 | 59 | 1013.1 |
| 20260509172021 | 70 | 287 | 0.0 | 5.0 | 0.00 | 0.00 | 0.00 | 57 | 1012.9 |
| 20260509171026 | 70 | 264 | 0.0 | 2.0 | 0.00 | 0.00 | 0.00 | 56 | 1013.0 |
| 20260509170031 | 71 | 282 | 1.0 | 5.0 | 0.00 | 0.00 | 0.00 | 55 | 1013.1 |
| 20260509165039 | 72 | 250 | 1.0 | 5.0 | 0.00 | 0.00 | 0.00 | 53 | 1013.0 |
| 20260509164024 | 73 | 305 | 2.0 | 5.0 | 0.00 | 0.00 | 0.00 | 51 | 1013.0 |
| 20260509163029 | 73 | 279 | 1.0 | 8.0 | 0.00 | 0.00 | 0.00 | 49 | 1013.0 |
| 20260509162017 | 74 | 313 | 2.0 | 8.0 | 0.00 | 0.00 | 0.00 | 48 | 1012.8 |
| 20260509161022 | 75 | 253 | 2.0 | 10.0 | 0.00 | 0.00 | 0.00 | 47 | 1012.8 |
| 20260509160027 | 75 | 244 | 1.0 | 8.0 | 0.00 | 0.00 | 0.00 | 45 | 1012.7 |
| 20260509155015 | 76 | 288 | 1.0 | 10.0 | 0.00 | 0.00 | 0.00 | 44 | 1012.7 |
| 20260509154020 | 77 | 290 | 3.0 | 10.0 | 0.00 | 0.00 | 0.00 | 43 | 1012.8 |
| 20260509153025 | 78 | 284 | 2.0 | 8.0 | 0.00 | 0.00 | 0.00 | 40 | 1012.7 |
| 20260509152030 | 79 | 236 | 1.0 | 8.0 | 0.00 | 0.00 | 0.00 | 36 | 1012.6 |
| 20260509151018 | 79 | 276 | 2.0 | 8.0 | 0.00 | 0.00 | 0.00 | 35 | 1012.7 |
| 20260509150023 | 80 | 238 | 2.0 | 8.0 | 0.00 | 0.00 | 0.00 | 34 | 1012.7 |
| 20260509145028 | 80 | 247 | 1.0 | 10.0 | 0.00 | 0.00 | 0.00 | 33 | 1012.9 |
| 20260509144016 | 81 | 238 | 2.0 | 8.0 | 0.00 | 0.00 | 0.00 | 33 | 1012.8 |
| 20260509143021 | 81 | 224 | 1.0 | 5.0 | 0.00 | 0.00 | 0.00 | 31 | 1012.8 |
| 20260509142026 | 81 | 223 | 2.0 | 5.0 | 0.00 | 0.00 | 0.00 | 30 | 1012.9 |
| 20260509141031 | 80 | 235 | 1.0 | 5.0 | 0.00 | 0.00 | 0.00 | 31 | 1012.9 |
| 20260509140019 | 81 | 256 | 2.0 | 10.0 | 0.00 | 0.00 | 0.00 | 31 | 1013.0 |
| 20260509135024 | 81 | 273 | 1.0 | 8.0 | 0.00 | 0.00 | 0.00 | 32 | 1013.0 |
| 20260509134049 | 80 | 255 | 2.0 | 10.0 | 0.00 | 0.00 | 0.00 | 31 | 1013.1 |
| 20260509133017 | 80 | 237 | 2.0 | 8.0 | 0.00 | 0.00 | 0.00 | 32 | 1013.2 |
| 20260509132022 | 80 | 253 | 1.0 | 5.0 | 0.00 | 0.00 | 0.00 | 32 | 1013.1 |
| 20260509131027 | 80 | 223 | 2.0 | 10.0 | 0.00 | 0.00 | 0.00 | 33 | 1013.2 |
| 20260509130014 | 80 | 234 | 4.0 | 10.0 | 0.00 | 0.00 | 0.00 | 34 | 1013.3 |
| 20260509125020 | 79 | 206 | 3.0 | 8.0 | 0.00 | 0.00 | 0.00 | 34 | 1013.4 |
| 20260509124025 | 79 | 235 | 4.0 | 10.0 | 0.00 | 0.00 | 0.00 | 33 | 1013.6 |
| 20260509123030 | 79 | 230 | 4.0 | 10.0 | 0.00 | 0.00 | 0.00 | 34 | 1013.6 |
| 20260509122038 | 79 | 232 | 3.0 | 13.0 | 0.00 | 0.00 | 0.00 | 34 | 1013.7 |
| 20260509121048 | 79 | 233 | 4.0 | 15.0 | 0.00 | 0.00 | 0.00 | 35 | 1013.6 |
| 20260509120028 | 78 | 226 | 4.0 | 10.0 | 0.00 | 0.00 | 0.00 | 35 | 1013.6 |
| 20260509115016 | 78 | 215 | 4.0 | 13.0 | 0.00 | 0.00 | 0.00 | 37 | 1013.7 |
| 20260509114021 | 78 | 237 | 4.0 | 13.0 | 0.00 | 0.00 | 0.00 | 37 | 1013.6 |
| 20260509113026 | 78 | 226 | 4.0 | 10.0 | 0.00 | 0.00 | 0.00 | 37 | 1013.9 |
| 20260509112031 | 78 | 237 | 4.0 | 17.0 | 0.00 | 0.00 | 0.00 | 38 | 1013.9 |
| 20260509111019 | 78 | 246 | 5.0 | 13.0 | 0.00 | 0.00 | 0.00 | 38 | 1013.8 |
| 20260509110024 | 78 | 241 | 3.0 | 10.0 | 0.00 | 0.00 | 0.00 | 39 | 1013.9 |
| 20260509105049 | 78 | 262 | 2.0 | 15.0 | 0.00 | 0.00 | 0.00 | 38 | 1013.9 |
| 20260509104017 | 78 | 231 | 3.0 | 13.0 | 0.00 | 0.00 | 0.00 | 38 | 1014.1 |
| 20260509103022 | 78 | 231 | 3.0 | 10.0 | 0.00 | 0.00 | 0.00 | 37 | 1014.0 |
| 20260509102026 | 79 | 234 | 3.0 | 10.0 | 0.00 | 0.00 | 0.00 | 34 | 1014.1 |
| 20260509101015 | 79 | 233 | 3.0 | 8.0 | 0.00 | 0.00 | 0.00 | 34 | 1014.3 |
| 20260509100019 | 79 | 232 | 4.0 | 15.0 | 0.00 | 0.00 | 0.00 | 34 | 1014.3 |
| 20260509095025 | 79 | 249 | 2.0 | 8.0 | 0.00 | 0.00 | 0.00 | 35 | 1014.3 |
| 20260509094050 | 78 | 226 | 3.0 | 8.0 | 0.00 | 0.00 | 0.00 | 35 | 1014.5 |
| 20260509093017 | 78 | 228 | 4.0 | 10.0 | 0.00 | 0.00 | 0.00 | 36 | 1014.5 |
| 20260509092023 | 78 | 218 | 2.0 | 8.0 | 0.00 | 0.00 | 0.00 | 39 | 1014.6 |
| 20260509091028 | 78 | 243 | 3.0 | 8.0 | 0.00 | 0.00 | 0.00 | 39 | 1014.7 |
| 20260509090016 | 78 | 219 | 2.0 | 10.0 | 0.00 | 0.00 | 0.00 | 37 | 1014.9 |
| 20260509085020 | 78 | 233 | 2.0 | 5.0 | 0.00 | 0.00 | 0.00 | 36 | 1014.7 |
| 20260509084045 | 78 | 253 | 1.0 | 5.0 | 0.00 | 0.00 | 0.00 | 36 | 1014.8 |